Location: Gorze? G�rny
(49.8500°N, 19.5000°E)
Time: 02:39:05
(UTC+00:00)

SPOT 5 - Pass Details

Date: 13 May 2021
Orbit: 623 x 815 km, 98.2° (Epoch: 18 June)

Event Time Altitude Azimuth Distance (km) Brightness Sun altitude
Exits shadow 19:56:40 18° 151° (SSE) 1,847 4.3 -12.8°
Maximum altitude 20:00:33 69° 71° (ENE) 853 3.1 -13.2°
Drops below altitude 10° 20:05:52 10° 350° (N) 2,407 6.6 -13.7°
Sets 20:08:16 0° 348° (NNW) 3,351 7.6 -13.9°
